Guymon, OK

8:06 AM CDT on April 25, 2017 (GMT -0500)
Guymon Municipal

Weather History for KGUY - August, 2013

Change the Weather History Date:

Friday, August 30, 2013

  Actual Average Record
Temperature  
Mean Temperature 85 °F 76 °F  
Max Temperature 104 °F 90 °F 104 °F (2013)
Min Temperature 65 °F 63 °F 53 °F (2015)
Degree Days  
Heating Degree Days 0 0  
Month to date heating degree days 0 0  
Since 1 June heating degree days 0 8  
Since 1 July heating degree days 0 0  
Cooling Degree Days 20 11  
Month to date cooling degree days 417 395  
Year to date cooling degree days 1530 1237  
Since 1 June cooling degree days 1326 1129  
Growing Degree Days 33 (Base 50)    
Moisture  
Dew Point 55 °F    
Average Humidity 43    
Maximum Humidity 73    
Minimum Humidity 13    
Precipitation  
Precipitation 0.00 in 0.10 in 0.83 in (2003)
Month to date precipitation 4.20 2.82  
Year to date precipitation 10.55 14.67  
Snow  
Snow 0.00 in - - ()
Month to date snowfall 0.0  
Since 1 June snowfall T  
Since 1 July snowfall 0.0  
Snow Depth 0.00 in    
Sea Level Pressure  
Sea Level Pressure 29.84 in    
Wind  
Wind Speed 3 mph (SSW)    
Max Wind Speed 9 mph    
Max Gust Speed 13 mph    
Visibility 10 miles    
Events      
T = Trace of Precipitation, MM = Missing Value Source: NWS Daily Summary

Daily Weather History Graph

Daily Weather History Graph

Search for Another Location

Airport or City:

Trip Planner

Search our weather history database for the weather conditions in past years. The results will help you decide how hot, cold, wet, or windy it might be!

Date:

Astronomy

Aug. 30, 2013 Rise Set
Actual Time 7:15 AM CDT 8:16 PM CDT
Civil Twilight 6:49 AM CDT 8:43 PM CDT
Nautical Twilight 6:17 AM CDT 9:14 PM CDT
Astronomical Twilight 5:45 AM CDT 9:47 PM CDT
Moon 2:00 AM CDT (8/30) 4:29 PM CDT (8/30)
Length of Visible Light 13h 53m
Length of Day
13h 00m
Waning Crescent, 29% of the Moon is Illuminated
Aug 30
Waning Crescent
Sep 5
New
Sep 12
First Quarter
Sep 19
Full
Sep 26
Last Quarter

Hourly Weather History & Observations

Time (CDT) Temp. Heat Index Dew Point Humidity Pressure Visibility Wind Dir Wind Speed Gust Speed Precip Events Conditions
12:53 AM 75.9 °F - 59.0 °F 56% 29.88 in 10.0 mi South 8.1 mph - N/A   Clear
1:53 AM 75.0 °F - 59.0 °F 57% 29.88 in 10.0 mi South 6.9 mph - N/A   Clear
2:53 AM 73.0 °F - 57.0 °F 57% 29.87 in 10.0 mi South 10.4 mph - N/A   Clear
3:53 AM 70.0 °F - 55.9 °F 61% 29.87 in 10.0 mi SSW 4.6 mph - N/A   Clear
4:53 AM 66.9 °F - 55.9 °F 68% 29.87 in 10.0 mi SSW 3.5 mph - N/A   Clear
5:53 AM 68.0 °F - 55.0 °F 63% 29.86 in 10.0 mi SSW 6.9 mph - N/A   Clear
6:53 AM 64.9 °F - 55.9 °F 73% 29.87 in 10.0 mi SSW 5.8 mph - N/A   Clear
7:53 AM 66.9 °F - 57.0 °F 70% 29.89 in 10.0 mi Calm Calm - N/A   Clear
8:53 AM 75.0 °F - 59.0 °F 57% 29.90 in 10.0 mi Calm Calm - N/A   Clear
9:53 AM 80.1 °F 80.4 °F 57.0 °F 45% 29.90 in 10.0 mi WNW 3.5 mph - N/A   Clear
10:53 AM 84.9 °F 84.2 °F 57.9 °F 40% 29.89 in 10.0 mi Calm Calm - N/A   Clear
11:53 AM 90.0 °F 89.1 °F 59.0 °F 35% 29.87 in 10.0 mi Calm Calm - N/A   Clear
12:53 PM 93.9 °F 92.9 °F 57.9 °F 30% 29.86 in 10.0 mi Variable 6.9 mph - N/A   Clear
1:53 PM 97.0 °F 96.1 °F 57.9 °F 27% 29.84 in 10.0 mi Variable 5.8 mph - N/A   Clear
2:53 PM 100.9 °F 99.1 °F 54.0 °F 21% 29.82 in 10.0 mi Variable 3.5 mph - N/A   Clear
3:53 PM 102.9 °F - 43.0 °F 13% 29.80 in 10.0 mi West 3.5 mph - N/A   Clear
4:53 PM 102.0 °F - 45.0 °F 14% 29.79 in 10.0 mi WSW 3.5 mph - N/A   Clear
5:53 PM 102.0 °F - 48.0 °F 16% 29.78 in 10.0 mi Calm Calm - N/A   Partly Cloudy
6:53 PM 100.9 °F - 48.0 °F 17% 29.78 in 10.0 mi Calm Calm - N/A   Clear
7:53 PM 93.9 °F 92.0 °F 55.0 °F 27% 29.78 in 10.0 mi SSE 6.9 mph - N/A   Clear
8:53 PM 89.1 °F 87.1 °F 55.0 °F 31% 29.78 in 10.0 mi SSE 4.6 mph - N/A   Clear
9:53 PM 86.0 °F 84.2 °F 54.0 °F 33% 29.79 in 10.0 mi SSW 3.5 mph - N/A   Clear
10:53 PM 81.0 °F 80.7 °F 55.0 °F 41% 29.80 in 10.0 mi Calm Calm - N/A   Clear
11:53 PM 80.1 °F 80.2 °F 55.9 °F 43% 29.80 in 10.0 mi Calm Calm - N/A   Clear